{"data":{"norad_id":52468,"epoch":"2026-09-19T11:34:18.951456Z","epoch_age_seconds":151196,"freshness":"FRESH","line1":"1 52468U 22049T   26262.48216379  .00000290  00000+0  19723-4 0  9996","line2":"2 52468  53.1603 258.8265 0001327  76.9523 283.1627 15.34390766241646","mean_motion":15.34390766,"eccentricity":0.0001327,"inclination_deg":53.1603,"raan_deg":258.8265,"arg_perigee_deg":76.9523,"mean_anomaly_deg":283.1627,"bstar":1.9723e-5,"rev_number":24164,"period_min":93.848322859367,"perigee_km":461.82290259682,"apogee_km":463.63846888062,"semimajor_km":6840.8676857387,"source":"CELESTRAK","updated_at":"2026-09-20T09:00:40.050814Z"}}